Location: Newark
(7.1028°S, 35.3258°W)
Time: 11:37:30
(UTC+00:00)

Hubble Space Telescope - Pass Details

Date: 24 January 2020
Orbit: 536 x 540 km, 28.5° (Epoch: 23 February)

Event Time Altitude Azimuth Distance (km) Brightness Sun altitude
Exits shadow 06:28:48 40° 71° (ENE) 786 1.8 -26.3°
Drops below altitude 10° 06:31:32 10° 64° (ENE) 1,776 3.9 -25.7°
Sets 06:33:47 0° 63° (ENE) 2,664 4.8 -25.2°
